Torna al catalogo

STARLINK-2245

AttivoComunicazioniVLEO
NORAD 48589·PAYLOAD·🇺🇸 United States

Lanciato May 15, 2021 da Cape Canaveral Space Force Station

Loading…

Prossimi Passaggi (prossime 24 ore)

TLE

AggiornatoSource: CelesTrak SupGP

Epoca: Sep 14, 2026, 21:37 UTC

1 48589C 21041AN  26257.90118056 -.00020320  00000+0 -65337-3 0  2576
2 48589  53.1577 326.2362 0001172  96.3073 351.1109 15.31716179    19

Traccia STARLINK-2245 in tempo reale con AllMySat

Download on the App Store